ACA855A EGLL-CYYZ

Flight info

Callsign ACA855A
Flight time N/A
Altitude 38000
Route CPT3F CPT DCT DIDZA L9 OKSAW DCT BIBPE DCT BUCGO DCT FELCA DCT NICXI DCT BAKUR DCT DOGAL/M084F380 DCT 55N020W 55N030W 55N040W 54N050W DCT NEEKO/N0491F380 N622E TAFFY/N0489F400 DCT VILRO DCT SAVEX Q806 TUKIR RAGID6
Aircraft B789/H-SDE1E2E3FGHIJ2J3J4J5M1RWXY/LB1D1

Departure

Time 2026-05-04 18:03
Airport London Heathrow Airport (EGLL)

Arrival

Time N/A
Airport Toronto Pearson International Airport (CYYZ)
Time Latitude Longitude Altitude Speed Heading
2026-05-04 17:20 51.47267 -0.46310 92 ft 0 kts 55°
2026-05-04 17:48 51.47255 -0.46337 92 ft 4 kts 55°
2026-05-04 17:48 51.47241 -0.46369 91 ft 3 kts 54°
2026-05-04 17:48 51.47224 -0.46395 93 ft 4 kts
2026-05-04 17:48 51.47201 -0.46385 91 ft 4 kts 325°
2026-05-04 17:49 51.47188 -0.46370 91 ft 1 kts 327°
2026-05-04 17:49 51.47186 -0.46368 91 ft 0 kts 327°
2026-05-04 17:52 51.47191 -0.46373 91 ft 2 kts 327°
2026-05-04 17:52 51.47219 -0.46408 90 ft 7 kts 315°
2026-05-04 17:52 51.47237 -0.46478 91 ft 7 kts 277°
2026-05-04 17:52 51.47240 -0.46574 90 ft 11 kts 271°
2026-05-04 17:53 51.47242 -0.46730 90 ft 16 kts 270°
2026-05-04 17:53 51.47190 -0.46859 94 ft 15 kts 192°
2026-05-04 17:53 51.47079 -0.46869 93 ft 18 kts 180°
2026-05-04 17:53 51.46947 -0.46868 92 ft 20 kts 179°
2026-05-04 17:54 51.46804 -0.46865 93 ft 20 kts 190°
2026-05-04 17:54 51.46749 -0.47008 93 ft 15 kts 268°
2026-05-04 17:54 51.46748 -0.47198 94 ft 18 kts 270°
2026-05-04 17:54 51.46748 -0.47416 93 ft 21 kts 270°
2026-05-04 17:55 51.46747 -0.47647 94 ft 21 kts 270°
2026-05-04 17:55 51.46746 -0.47879 94 ft 21 kts 270°
2026-05-04 17:55 51.46745 -0.48090 91 ft 3 kts 268°
2026-05-04 18:00 51.46745 -0.48091 91 ft 1 kts 268°
2026-05-04 18:00 51.46744 -0.48116 91 ft 6 kts 268°
2026-05-04 18:00 51.46744 -0.48257 90 ft 16 kts 270°
2026-05-04 18:00 51.46744 -0.48458 90 ft 20 kts 268°
2026-05-04 18:01 51.46732 -0.48685 93 ft 20 kts 249°
2026-05-04 18:01 51.46628 -0.48759 94 ft 16 kts 190°
2026-05-04 18:01 51.46516 -0.48779 95 ft 13 kts 161°
2026-05-04 18:02 51.46479 -0.48673 95 ft 0 kts 93°
2026-05-04 18:02 51.46478 -0.48624 94 ft 26 kts 91°
2026-05-04 18:02 51.46480 -0.47896 89 ft 103 kts 90°
2026-05-04 18:02 51.46483 -0.46377 131 ft 162 kts 90°
2026-05-04 18:03 51.46456 -0.44481 571 ft 171 kts 89°
2026-05-04 18:03 51.46423 -0.42622 795 ft 169 kts 95°
2026-05-04 18:03 51.45850 -0.40849 1197 ft 178 kts 121°
2026-05-04 18:03 51.45213 -0.39149 1870 ft 180 kts 115°
2026-05-04 18:04 51.44605 -0.37387 2503 ft 181 kts 116°
2026-05-04 18:04 51.43976 -0.35632 3137 ft 182 kts 117°
2026-05-04 18:04 51.42006 -0.32944 4251 ft 193 kts 157°
2026-05-04 18:05 51.40788 -0.32528 4803 ft 194 kts 176°
2026-05-04 18:05 51.39657 -0.32692 5283 ft 195 kts 193°
2026-05-04 18:05 51.38417 -0.33541 5854 ft 196 kts 212°
2026-05-04 18:05 51.37549 -0.35241 6018 ft 204 kts 252°
2026-05-04 18:06 51.38366 -0.39417 6843 ft 201 kts 300°
2026-05-04 18:06 51.39094 -0.41324 7516 ft 205 kts 300°
2026-05-04 18:06 51.39862 -0.43296 8009 ft 217 kts 301°
2026-05-04 18:07 51.40679 -0.45366 8027 ft 217 kts 301°
2026-05-04 18:07 51.41474 -0.47363 8021 ft 211 kts 301°
2026-05-04 18:07 51.42260 -0.49340 8019 ft 210 kts 301°
2026-05-04 18:07 51.43011 -0.51342 8000 ft 209 kts 294°
2026-05-04 18:08 51.43488 -0.53526 8016 ft 208 kts 286°
2026-05-04 18:08 51.43922 -0.55742 8019 ft 208 kts 285°
2026-05-04 18:08 51.44355 -0.57955 8015 ft 208 kts 285°
2026-05-04 18:08 51.44786 -0.60165 8016 ft 208 kts 286°
2026-05-04 18:09 51.45648 -0.64592 8018 ft 208 kts 285°
2026-05-04 18:09 51.46507 -0.69017 8013 ft 208 kts 285°
2026-05-04 18:10 51.46937 -0.71236 8016 ft 208 kts 285°
2026-05-04 18:10 51.47381 -0.73444 8013 ft 208 kts 289°
2026-05-04 18:10 51.47979 -0.75597 8425 ft 209 kts 293°
2026-05-04 18:10 51.48551 -0.77728 9203 ft 209 kts 289°
2026-05-04 18:11 51.49081 -0.79909 9882 ft 211 kts 288°
2026-05-04 18:11 51.49616 -0.82118 10508 ft 214 kts 289°
2026-05-04 18:11 51.50171 -0.84389 11028 ft 227 kts 289°
2026-05-04 18:11 51.50789 -0.86914 11195 ft 258 kts 290°
2026-05-04 18:12 51.51483 -0.89748 11439 ft 286 kts 290°
2026-05-04 18:12 51.52224 -0.92768 12040 ft 297 kts 290°
2026-05-04 18:12 51.52992 -0.95909 12946 ft 301 kts 290°
2026-05-04 18:12 51.53749 -0.99016 13787 ft 305 kts 291°
2026-05-04 18:13 51.54527 -1.02210 14534 ft 309 kts 290°
2026-05-04 18:13 51.55323 -1.05488 15012 ft 322 kts 290°
2026-05-04 18:13 51.56951 -1.12196 15016 ft 317 kts 290°
2026-05-04 18:14 51.57748 -1.15486 15010 ft 315 kts 290°
2026-05-04 18:14 51.58538 -1.18759 15014 ft 314 kts 290°
2026-05-04 18:14 51.59328 -1.22037 15011 ft 314 kts 290°
2026-05-04 18:15 51.60909 -1.28602 15009 ft 315 kts 290°
2026-05-04 18:15 51.62485 -1.35175 15011 ft 316 kts 290°
2026-05-04 18:15 51.63277 -1.38479 15645 ft 314 kts 290°